Time,TemperatureF,DewpointF,PressureIn,WindDirection,WindDirectionDegrees,WindSpeedMPH,WindSpeedGustMPH,Humidity,HourlyPrecipIn,Conditions,Clouds,dailyrainin,SolarRadiationWatts/m^2,SoftwareType,DateUTC
2013-08-10 00:09:00,70.2,69.0,29.82,WSW,254,0.0,-999.0,97,-99.99,,,2.21,0,weatherlink.com 1.10,2013-08-10 04:09:00,
2013-08-10 00:24:00,69.9,69.0,29.83,WSW,254,0.0,-999.0,97,-99.99,,,2.21,0,weatherlink.com 1.10,2013-08-10 04:24:00,
2013-08-10 00:39:00,69.7,69.0,29.83,WSW,254,0.0,-999.0,97,-99.99,,,2.21,0,weatherlink.com 1.10,2013-08-10 04:39:00,
2013-08-10 00:54:00,69.4,69.0,29.83,WSW,254,0.0,-999.0,97,-99.99,,,2.21,0,weatherlink.com 1.10,2013-08-10 04:54:00,
2013-08-10 01:09:00,69.3,69.0,29.83,WSW,254,0.0,-999.0,98,-99.99,,,2.21,0,weatherlink.com 1.10,2013-08-10 05:09:00,
2013-08-10 01:24:00,69.4,69.0,29.83,WSW,254,0.0,-999.0,98,-99.99,,,2.21,0,weatherlink.com 1.10,2013-08-10 05:24:00,
2013-08-10 01:39:00,69.0,69.0,29.83,WSW,254,0.0,-999.0,98,-99.99,,,2.21,0,weatherlink.com 1.10,2013-08-10 05:39:00,
2013-08-10 01:54:00,68.6,68.0,29.84,WSW,254,1.0,-999.0,98,-99.99,,,2.21,0,weatherlink.com 1.10,2013-08-10 05:54:00,
2013-08-10 02:09:00,68.2,68.0,29.85,WSW,254,0.0,-999.0,98,-99.99,,,2.21,0,weatherlink.com 1.10,2013-08-10 06:09:00,
2013-08-10 02:24:00,67.7,67.0,29.85,WSW,254,0.0,-999.0,98,-99.99,,,2.21,0,weatherlink.com 1.10,2013-08-10 06:24:00,
2013-08-10 02:39:00,67.6,67.0,29.85,WSW,254,0.0,-999.0,98,-99.99,,,2.21,0,weatherlink.com 1.10,2013-08-10 06:39:00,
2013-08-10 02:54:00,67.8,67.0,29.85,WSW,253,0.0,-999.0,98,-99.99,,,0.00,0,weatherlink.com 1.10,2013-08-10 06:54:00,
2013-08-10 03:09:00,67.9,67.0,29.86,West,263,0.0,-999.0,98,-99.99,,,0.00,0,weatherlink.com 1.10,2013-08-10 07:09:00,
2013-08-10 03:24:00,67.5,67.0,29.87,West,263,0.0,-999.0,98,-99.99,,,0.00,0,weatherlink.com 1.10,2013-08-10 07:24:00,
2013-08-10 03:39:00,67.3,67.0,29.87,NW,315,0.0,-999.0,98,-99.99,,,0.00,0,weatherlink.com 1.10,2013-08-10 07:39:00,
2013-08-10 03:54:00,66.9,66.0,29.87,NW,315,0.0,-999.0,98,-99.99,,,0.00,0,weatherlink.com 1.10,2013-08-10 07:54:00,
2013-08-10 04:09:00,66.4,66.0,29.88,NW,315,0.0,-999.0,98,-99.99,,,0.00,0,weatherlink.com 1.10,2013-08-10 08:09:00,
2013-08-10 04:24:00,66.0,66.0,29.88,NW,315,0.0,-999.0,98,-99.99,,,0.00,0,weatherlink.com 1.10,2013-08-10 08:24:00,
2013-08-10 04:39:00,65.4,65.0,29.89,NW,315,0.0,-999.0,98,-99.99,,,0.00,0,weatherlink.com 1.10,2013-08-10 08:39:00,
2013-08-10 04:54:00,65.1,65.0,29.89,NW,315,0.0,-999.0,98,-99.99,,,0.00,0,weatherlink.com 1.10,2013-08-10 08:54:00,
2013-08-10 05:09:00,64.9,64.0,29.90,NW,315,0.0,-999.0,98,-99.99,,,0.01,0,weatherlink.com 1.10,2013-08-10 09:09:00,
2013-08-10 05:24:00,64.6,64.0,29.90,NW,315,0.0,-999.0,98,-99.99,,,0.01,0,weatherlink.com 1.10,2013-08-10 09:24:00,
2013-08-10 05:39:00,64.1,64.0,29.90,NW,315,0.0,-999.0,98,-99.99,,,0.01,0,weatherlink.com 1.10,2013-08-10 09:39:00,
2013-08-10 05:54:00,63.9,63.0,29.91,NW,315,0.0,-999.0,98,-99.99,,,0.01,0,weatherlink.com 1.10,2013-08-10 09:54:00,
2013-08-10 06:09:00,63.6,63.0,29.91,NW,315,0.0,-999.0,98,-99.99,,,0.01,7,weatherlink.com 1.10,2013-08-10 10:09:00,
2013-08-10 06:24:00,63.6,63.0,29.91,NW,315,0.0,-999.0,98,-99.99,,,0.01,23,weatherlink.com 1.10,2013-08-10 10:24:00,
2013-08-10 06:39:00,63.8,63.0,29.92,NW,315,0.0,-999.0,98,-99.99,,,0.01,37,weatherlink.com 1.10,2013-08-10 10:39:00,
2013-08-10 06:54:00,64.2,64.0,29.93,NW,315,0.0,-999.0,98,-99.99,,,0.01,44,weatherlink.com 1.10,2013-08-10 10:54:00,
2013-08-10 07:09:00,64.7,64.0,29.93,NW,315,0.0,-999.0,98,-99.99,,,0.01,149,weatherlink.com 1.10,2013-08-10 11:09:00,
2013-08-10 07:24:00,66.1,66.0,29.93,NW,315,0.0,-999.0,99,-99.99,,,0.01,230,weatherlink.com 1.10,2013-08-10 11:24:00,
2013-08-10 07:39:00,66.5,66.0,29.93,NW,315,0.0,-999.0,98,-99.99,,,0.01,258,weatherlink.com 1.10,2013-08-10 11:39:00,
2013-08-10 07:54:00,67.4,67.0,29.93,NW,315,0.0,-999.0,98,-99.99,,,0.01,225,weatherlink.com 1.10,2013-08-10 11:54:00,
2013-08-10 08:09:00,67.5,66.0,29.94,NW,315,0.0,-999.0,96,-99.99,,,0.01,299,weatherlink.com 1.10,2013-08-10 12:09:00,
2013-08-10 08:24:00,68.3,67.0,29.94,NW,315,0.0,-999.0,95,-99.99,,,0.01,244,weatherlink.com 1.10,2013-08-10 12:24:00,
2013-08-10 08:39:00,69.0,66.0,29.95,NW,313,0.0,-999.0,91,-99.99,,,0.01,454,weatherlink.com 1.10,2013-08-10 12:39:00,
2013-08-10 08:54:00,70.5,66.0,29.94,West,272,1.0,-999.0,86,-99.99,,,0.01,547,weatherlink.com 1.10,2013-08-10 12:54:00,
2013-08-10 09:09:00,71.9,67.0,29.95,West,267,5.0,-999.0,84,-99.99,,,0.01,501,weatherlink.com 1.10,2013-08-10 13:09:00,
2013-08-10 09:24:00,72.3,67.0,29.94,NW,322,0.0,-999.0,82,-99.99,,,0.01,573,weatherlink.com 1.10,2013-08-10 13:24:00,
2013-08-10 09:39:00,73.6,66.0,29.94,NW,315,0.0,-999.0,76,-99.99,,,0.01,619,weatherlink.com 1.10,2013-08-10 13:39:00,
2013-08-10 09:54:00,74.0,65.0,29.94,West,278,0.0,-999.0,73,-99.99,,,0.01,671,weatherlink.com 1.10,2013-08-10 13:54:00,
2013-08-10 10:09:00,75.3,66.0,29.93,West,279,0.0,-999.0,72,-99.99,,,0.01,802,weatherlink.com 1.10,2013-08-10 14:09:00,
2013-08-10 10:24:00,75.8,64.0,29.94,NNE,13,0.0,-999.0,66,-99.99,,,0.01,800,weatherlink.com 1.10,2013-08-10 14:24:00,
2013-08-10 10:39:00,75.7,64.0,29.94,NW,309,2.0,-999.0,67,-99.99,,,0.01,383,weatherlink.com 1.10,2013-08-10 14:39:00,
2013-08-10 10:54:00,76.0,66.0,29.93,WNW,299,2.0,-999.0,70,-99.99,,,0.01,838,weatherlink.com 1.10,2013-08-10 14:54:00,
2013-08-10 11:09:00,75.9,65.0,29.94,WNW,291,4.0,-999.0,69,-99.99,,,0.01,689,weatherlink.com 1.10,2013-08-10 15:09:00,
2013-08-10 11:24:00,76.5,63.0,29.94,NNW,336,2.0,-999.0,64,-99.99,,,0.01,420,weatherlink.com 1.10,2013-08-10 15:24:00,
2013-08-10 11:39:00,76.3,65.0,29.94,NE,46,2.0,-999.0,67,-99.99,,,0.01,759,weatherlink.com 1.10,2013-08-10 15:39:00,
2013-08-10 11:54:00,75.9,65.0,29.94,WNW,288,1.0,-999.0,68,-99.99,,,0.01,443,weatherlink.com 1.10,2013-08-10 15:54:00,
2013-08-10 12:09:00,75.5,64.0,29.94,NNW,342,1.0,-999.0,68,-99.99,,,0.01,380,weatherlink.com 1.10,2013-08-10 16:09:00,
2013-08-10 12:24:00,75.4,65.0,29.94,NW,319,2.0,-999.0,69,-99.99,,,0.01,378,weatherlink.com 1.10,2013-08-10 16:24:00,
2013-08-10 12:39:00,75.9,65.0,29.94,West,271,1.0,-999.0,69,-99.99,,,0.01,508,weatherlink.com 1.10,2013-08-10 16:39:00,
2013-08-10 12:54:00,77.1,66.0,29.93,West,267,1.0,-999.0,69,-99.99,,,0.01,1088,weatherlink.com 1.10,2013-08-10 16:54:00,
2013-08-10 13:09:00,77.3,66.0,29.94,SW,236,0.0,-999.0,69,-99.99,,,0.01,993,weatherlink.com 1.10,2013-08-10 17:09:00,
2013-08-10 13:24:00,78.4,66.0,29.94,West,259,3.0,-999.0,65,-99.99,,,0.01,1035,weatherlink.com 1.10,2013-08-10 17:24:00,
2013-08-10 13:39:00,79.4,66.0,29.93,WNW,284,6.0,-999.0,64,-99.99,,,0.01,1039,weatherlink.com 1.10,2013-08-10 17:39:00,
2013-08-10 13:54:00,80.0,66.0,29.92,SW,234,0.0,-999.0,62,-99.99,,,0.01,327,weatherlink.com 1.10,2013-08-10 17:54:00,
2013-08-10 14:09:00,80.1,65.0,29.93,WNW,300,0.0,-999.0,61,-99.99,,,0.01,445,weatherlink.com 1.10,2013-08-10 18:09:00,
2013-08-10 14:24:00,79.2,65.0,29.92,NNW,329,1.0,-999.0,61,-99.99,,,0.01,348,weatherlink.com 1.10,2013-08-10 18:24:00,
2013-08-10 14:39:00,80.1,66.0,29.92,West,265,0.0,-999.0,62,-99.99,,,0.01,926,weatherlink.com 1.10,2013-08-10 18:39:00,
2013-08-10 14:54:00,80.2,65.0,29.92,NNW,333,7.0,-999.0,61,-99.99,,,0.01,220,weatherlink.com 1.10,2013-08-10 18:54:00,
2013-08-10 15:09:00,81.1,67.0,29.92,NW,306,0.0,-999.0,62,-99.99,,,0.01,835,weatherlink.com 1.10,2013-08-10 19:09:00,
2013-08-10 15:24:00,82.1,64.0,29.92,West,277,5.0,-999.0,55,-99.99,,,0.01,816,weatherlink.com 1.10,2013-08-10 19:24:00,
2013-08-10 15:39:00,80.7,63.0,29.92,North,5,4.0,-999.0,56,-99.99,,,0.01,802,weatherlink.com 1.10,2013-08-10 19:39:00,
2013-08-10 15:54:00,81.5,60.0,29.92,WSW,252,0.0,-999.0,48,-99.99,,,0.01,712,weatherlink.com 1.10,2013-08-10 19:54:00,
2013-08-10 16:09:00,82.1,59.0,29.92,North,360,1.0,-999.0,46,-99.99,,,0.01,670,weatherlink.com 1.10,2013-08-10 20:09:00,
2013-08-10 16:24:00,83.0,62.0,29.92,NNW,337,10.0,-999.0,49,-99.99,,,0.01,631,weatherlink.com 1.10,2013-08-10 20:24:00,
2013-08-10 16:39:00,83.2,61.0,29.92,West,267,1.0,-999.0,47,-99.99,,,0.01,617,weatherlink.com 1.10,2013-08-10 20:39:00,
2013-08-10 16:54:00,82.5,61.0,29.92,WNW,300,0.0,-999.0,49,-99.99,,,0.01,598,weatherlink.com 1.10,2013-08-10 20:54:00,
2013-08-10 17:09:00,82.7,61.0,29.93,WNW,288,2.0,-999.0,48,-99.99,,,0.01,494,weatherlink.com 1.10,2013-08-10 21:09:00,
2013-08-10 17:24:00,82.3,61.0,29.93,NW,325,0.0,-999.0,48,-99.99,,,0.01,127,weatherlink.com 1.10,2013-08-10 21:24:00,
2013-08-10 17:39:00,81.6,61.0,29.93,NW,316,2.0,-999.0,49,-99.99,,,0.01,408,weatherlink.com 1.10,2013-08-10 21:39:00,
2013-08-10 17:54:00,81.5,63.0,29.93,West,267,0.0,-999.0,53,-99.99,,,0.01,381,weatherlink.com 1.10,2013-08-10 21:54:00,
2013-08-10 18:09:00,81.5,60.0,29.94,WNW,288,0.0,-999.0,49,-99.99,,,0.01,306,weatherlink.com 1.10,2013-08-10 22:09:00,
2013-08-10 18:24:00,80.9,60.0,29.94,NW,319,3.0,-999.0,49,-99.99,,,0.01,269,weatherlink.com 1.10,2013-08-10 22:24:00,
2013-08-10 18:39:00,80.1,60.0,29.94,North,355,1.0,-999.0,51,-99.99,,,0.01,200,weatherlink.com 1.10,2013-08-10 22:39:00,
2013-08-10 18:54:00,79.4,61.0,29.95,West,263,0.0,-999.0,54,-99.99,,,0.01,60,weatherlink.com 1.10,2013-08-10 22:54:00,
2013-08-10 19:09:00,77.3,60.0,29.95,West,279,1.0,-999.0,56,-99.99,,,0.01,28,weatherlink.com 1.10,2013-08-10 23:09:00,
2013-08-10 19:24:00,75.8,60.0,29.96,West,279,0.0,-999.0,58,-99.99,,,0.01,23,weatherlink.com 1.10,2013-08-10 23:24:00,
2013-08-10 19:39:00,74.5,61.0,29.96,West,279,0.0,-999.0,62,-99.99,,,0.01,16,weatherlink.com 1.10,2013-08-10 23:39:00,
2013-08-10 19:54:00,73.1,61.0,29.97,West,279,0.0,-999.0,66,-99.99,,,0.01,9,weatherlink.com 1.10,2013-08-10 23:54:00,
2013-08-10 20:09:00,71.6,60.0,29.98,West,279,0.0,-999.0,68,-99.99,,,0.01,0,weatherlink.com 1.10,2013-08-11 00:09:00,
2013-08-10 20:24:00,70.6,60.0,29.98,West,279,0.0,-999.0,69,-99.99,,,0.01,0,weatherlink.com 1.10,2013-08-11 00:24:00,
2013-08-10 20:39:00,69.0,62.0,29.99,West,279,0.0,-999.0,77,-99.99,,,0.01,0,weatherlink.com 1.10,2013-08-11 00:39:00,
2013-08-10 20:54:00,67.9,62.0,29.99,West,279,0.0,-999.0,81,-99.99,,,0.01,0,weatherlink.com 1.10,2013-08-11 00:54:00,
2013-08-10 21:09:00,66.7,61.0,30.00,West,279,0.0,-999.0,83,-99.99,,,0.01,0,weatherlink.com 1.10,2013-08-11 01:09:00,
2013-08-10 21:24:00,65.6,62.0,30.01,West,279,0.0,-999.0,87,-99.99,,,0.01,0,weatherlink.com 1.10,2013-08-11 01:24:00,
2013-08-10 21:39:00,64.8,61.0,30.01,West,279,0.0,-999.0,87,-99.99,,,0.01,0,weatherlink.com 1.10,2013-08-11 01:39:00,
2013-08-10 21:54:00,64.2,61.0,30.01,West,279,0.0,-999.0,89,-99.99,,,0.01,0,weatherlink.com 1.10,2013-08-11 01:54:00,
2013-08-10 22:09:00,63.3,60.0,30.02,West,279,0.0,-999.0,90,-99.99,,,0.01,0,weatherlink.com 1.10,2013-08-11 02:09:00,
2013-08-10 22:24:00,62.6,60.0,30.02,West,279,0.0,-999.0,91,-99.99,,,0.01,0,weatherlink.com 1.10,2013-08-11 02:24:00,
2013-08-10 22:39:00,62.1,60.0,30.02,West,279,0.0,-999.0,92,-99.99,,,0.01,0,weatherlink.com 1.10,2013-08-11 02:39:00,
2013-08-10 22:54:00,61.5,60.0,30.02,West,279,0.0,-999.0,93,-99.99,,,0.01,0,weatherlink.com 1.10,2013-08-11 02:54:00,
2013-08-10 23:09:00,61.1,59.0,30.03,West,279,0.0,-999.0,93,-99.99,,,0.01,0,weatherlink.com 1.10,2013-08-11 03:09:00,
2013-08-10 23:39:00,60.4,59.0,30.03,West,279,0.0,-999.0,94,-99.99,,,0.01,0,weatherlink.com 1.10,2013-08-11 03:39:00,